Погода в Дятьковичах

Россия / Брянская область     53°25′49″N   33°46′55″E
темп.,
°C
ветер,
м/с
пор.,
м/с
влажн.,
%
обл.,
%
осадки,
мм/ч
давл.,
гПа
погр.,
м
6 марта, сб
сб600:00−7зсз37886 0.0 1017184
03:00−8сз399516 0.0 1018269
06:00−9сз369252 0.0 1019163
09:00−8зсз369153 0.0 1020211
12:00−5сз35750 0.0 1021576
15:00−4сз47670 0.0 10201156
18:00−6зсз377922 0.0 1019203
21:00−8з398811 0.0 1020243
7 марта, вс
вс700:00−8зюз412830 0.0 1018385
03:00−8юз6148127 0.0 1015466
06:00−6юз71581100 0.0 1011730
09:00−3юз91782100 0.0 10061157
12:00−2зюз91789100 0.4 10021185
15:000зюз101889100 0.9 10001404
18:00−1зсз71690100 1.9 10001543
21:00−5з4147173 2.2 1002583
8 марта, пн
пн800:00−5зюз4148124 0.0 1002561
03:00−6з4128526 0.0 1002615
06:00−6з5128787 0.0 1002720
09:00−5зсз598894 0.3 1004690
12:00−5сз587133 0.0 1006731
15:00−5сз697633 0.1 10081090
18:00−6зсз41082100 0.1 1010784
21:00−8сз389183 0.1 1013312
9 марта, вт
вт900:00−10сз369479 0.0 1014193
03:00−11ссз359472 0.0 1016178
06:00−11ссз2593100 0.0 1017214
09:00−11ссз2589100 0.0 1019260
12:00−9ссз3578100 0.0 1019578
15:00−7сз367256 0.0 1020853
18:00−9сз368169 0.0 1020448
21:00−11сз268961 0.0 1023136
10 марта, ср
ср1000:00−12зсз22910 0.0 102348
03:00−12юз229129 0.0 102357
06:00−10ююз3691100 0.0 1022251
09:00−8юз41085100 0.0 1022481
12:00−5з4988100 0.4 1021695
15:00−3з3685100 1.4 1021683
18:00−3зюз2596100 0.5 1021322
21:00−6св3496100 1.9 1023181